Location: Wien
(48.2082°N, 16.3738°E)
Time: 08:53:29
(UTC+02:00)

Transit 4A - Pass Details

Date: 27 February 2024
Orbit: 871 x 971 km, 66.8° (Epoch: 24 April)

Event Time Altitude Azimuth Distance (km) Brightness Sun altitude
Exits shadow 05:18:46 - 318° (NW) 3,033 10.2 -14.4°
Reaches altitude 10° 05:21:06 10° 336° (NNW) 2,582 10.0 -14.1°
Maximum altitude 05:23:33 12° 0° (N) 2,393 10.1 -13.6°
Drops below altitude 10° 05:25:58 10° 25° (NNE) 2,558 10.6 -13.2°
Sets 05:30:13 0° 54° (NE) 3,481 11.9 -12.5°
